Regional Weather Roundup
Issued by NWS Cleveland, OH

Home | Current Version | Previous Version | Graphics & Text | Print | Product List | Glossary On
Versions: 1 2 3 4 5 6 7 8 9 10 11 12 13 14 15 16 17 18 19 20 21 22 23 24 25 26 27 28 29 30 31 32 33 34 35 36 37 38 39 40 41 42 43 44 45 46 47 48 49 50
595
ASUS41 KCLE 301212
RWRCLE
OHIO REGIONAL WEATHER ROUNDUP
NATIONAL WEATHER SERVICE WILMINGTON, OH
800 AM EDT SAT JUL 30 2016

NOTE: "FAIR" INDICATES FEW OR NO CLOUDS BELOW 12,000 FEET WITH NO
SIGNIFICANT WEATHER AND/OR OBSTRUCTIONS TO VISIBILITY.

OHZ001>008-015>018-024>027-034-035-043-044-301300-
   NORTHWEST OHIO

CITY           SKY/WX    TMP DP  RH WIND       PRES   REMARKS
DEFIANCE       PTSUNNY   67  62  84 N3        29.95R
FINDLAY        CLOUDY    72  67  84 SE3       29.93R HAZE
TOLEDO EXPRESS FAIR      67  64  90 N5        29.93S
TOLEDO EXEC    PTSUNNY   72  68  87 N3        29.94R
LIMA           FAIR      70  69  97 CALM      29.94S FOG
$$

OHZ009>014-019>023-028>033-038-089-301300-
   NORTHEAST OHIO

CITY           SKY/WX    TMP DP  RH WIND       PRES   REMARKS
CLE-HOPKINS    PTSUNNY   74  65  73 E7        29.96R
CLE-LAKEFRONT  CLOUDY    73  67  81 SE6       29.93R
CUY CO. ARPT   NOT AVBL
LORAIN-ELYRIA  PTSUNNY   70  67  90 CALM      29.95R
ASHTABULA      FAIR      68  68 100 E7        29.98R
AKRON-CANTON   PTSUNNY   70  67  90 NE6       29.96R FOG
WOOSTER        FAIR      69  67  93 SE3       29.97R FOG
MANSFIELD      CLOUDY    70  68  93 CALM      29.96R FOG
YOUNGSTOWN     CLOUDY    68  66  93 NE8       29.97R
$$

OHZ042-051>053-060>062-070>072-077>081-301300-
  SOUTHWEST OHIO

CITY           SKY/WX    TMP DP  RH WIND       PRES   REMARKS
CINC-COVINGTON FOG       70  70 100 W5        29.96R VSB 1/4
CINC-LUNKEN    CLOUDY    72  72 100 CALM      29.95R FOG
HAMILTON       CLOUDY    72  70  93 CALM      29.96R FOG
DAYTON         PTSUNNY   70  69  97 W3        29.96R FOG
WRIGHT-PAT AFB CLOUDY    71  71 100 SW3       29.95R
DAYTON GENERAL PTSUNNY   71  68  90 SW3       29.95R FOG
WILMINGTON     CLOUDY    69  69 100 W8        29.96R FOG
$$

OHZ036-037-039>041-045>050-054>059-063>069-073>076-082>088-301300-
  CENTRAL AND SOUTHEAST OHIO

CITY           SKY/WX    TMP DP  RH WIND       PRES   REMARKS
COLUMBUS       CLOUDY    71  69  93 CALM      29.95R
OSU AIRPORT    CLOUDY    71  70  96 S5        29.96R FOG
BOLTON FIELD   PTSUNNY   70  70 100 SW2         N/A  FOG
RICKENBACK AFB PTSUNNY   70  69  99 S3        29.96R
NEWARK         CLOUDY    71  70  96 S3        29.95R FOG
MARION         PTSUNNY   71  67  87 S6        29.96R FOG
LANCASTER      FAIR      71  70  96 CALM      29.96R
ZANESVILLE     CLOUDY    72  67  84 CALM      29.96S
NEW PHILLY     RAIN      71  67  87 CALM      29.96R FOG
$$




USA.gov is the U.S. government's official web portal to all federal, state and local government web resources and services.